AMX619 KLAX-MMMX

Flight info

Callsign AMX619
Flight time 3h 4m
Altitude 35000
Route PNDAH2 TCATE DCT PPE UJ7 HMO UT18 VIGLA/N0461F370 UT18 NABAS UT49 DGO UJ5 ZCL UT130 DARAN DARAN3A
Aircraft B38M/M-SDE1FGHILORVWXY/HB1

Departure

Time 2026-05-05 17:42
Airport Los Angeles International Airport (KLAX)

Arrival

Time 2026-05-05 20:46
Airport Mexico City Benito Juárez International Airport (MMMX)
Time Latitude Longitude Altitude Speed Heading
2026-05-05 17:08 33.94357 -118.41440 128 ft 0 kts 261°
2026-05-05 17:25 33.94359 -118.41423 124 ft 3 kts 261°
2026-05-05 17:26 33.94362 -118.41399 127 ft 3 kts 261°
2026-05-05 17:26 33.94365 -118.41377 128 ft 3 kts 254°
2026-05-05 17:26 33.94373 -118.41357 124 ft 3 kts 223°
2026-05-05 17:26 33.94389 -118.41346 125 ft 3 kts 190°
2026-05-05 17:27 33.94409 -118.41345 126 ft 3 kts 175°
2026-05-05 17:27 33.94422 -118.41346 127 ft 2 kts 174°
2026-05-05 17:27 33.94440 -118.41348 127 ft 2 kts 174°
2026-05-05 17:27 33.94447 -118.41349 128 ft 0 kts 174°
2026-05-05 17:32 33.94393 -118.41342 124 ft 13 kts 173°
2026-05-05 17:32 33.94317 -118.41330 125 ft 9 kts 172°
2026-05-05 17:32 33.94246 -118.41318 125 ft 12 kts 173°
2026-05-05 17:33 33.94159 -118.41306 126 ft 13 kts 173°
2026-05-05 17:33 33.94060 -118.41292 127 ft 15 kts 174°
2026-05-05 17:33 33.93973 -118.41279 127 ft 8 kts 173°
2026-05-05 17:33 33.93940 -118.41274 125 ft 6 kts 172°
2026-05-05 17:34 33.93887 -118.41266 126 ft 11 kts 173°
2026-05-05 17:34 33.93791 -118.41250 126 ft 16 kts 166°
2026-05-05 17:34 33.93759 -118.41167 128 ft 12 kts 83°
2026-05-05 17:34 33.93770 -118.41059 128 ft 14 kts 83°
2026-05-05 17:35 33.93782 -118.40936 126 ft 16 kts 83°
2026-05-05 17:35 33.93797 -118.40798 124 ft 17 kts 82°
2026-05-05 17:35 33.93813 -118.40647 127 ft 19 kts 83°
2026-05-05 17:35 33.93829 -118.40481 128 ft 21 kts 84°
2026-05-05 17:36 33.93845 -118.40301 128 ft 22 kts 83°
2026-05-05 17:36 33.93866 -118.40124 126 ft 21 kts 83°
2026-05-05 17:36 33.93880 -118.39978 128 ft 18 kts 83°
2026-05-05 17:36 33.93896 -118.39825 127 ft 19 kts 83°
2026-05-05 17:37 33.93913 -118.39657 125 ft 21 kts 83°
2026-05-05 17:37 33.93932 -118.39478 128 ft 21 kts 83°
2026-05-05 17:37 33.93950 -118.39300 128 ft 21 kts 82°
2026-05-05 17:37 33.93966 -118.39140 127 ft 20 kts 83°
2026-05-05 17:38 33.93984 -118.38969 126 ft 21 kts 83°
2026-05-05 17:38 33.94003 -118.38785 128 ft 23 kts 83°
2026-05-05 17:38 33.94023 -118.38588 128 ft 24 kts 83°
2026-05-05 17:38 33.94043 -118.38399 125 ft 12 kts 83°
2026-05-05 17:39 33.94006 -118.38317 123 ft 13 kts 158°
2026-05-05 17:39 33.93954 -118.38316 128 ft 0 kts 237°
2026-05-05 17:39 33.93951 -118.38338 126 ft 0 kts 265°
2026-05-05 17:39 33.93950 -118.38349 128 ft 1 kts 264°
2026-05-05 17:40 33.93950 -118.38356 128 ft 0 kts 264°
2026-05-05 17:41 33.93950 -118.38357 128 ft 1 kts 264°
2026-05-05 17:41 33.93928 -118.38571 127 ft 67 kts 263°
2026-05-05 17:42 33.93837 -118.39462 126 ft 144 kts 263°
2026-05-05 17:42 33.93683 -118.40891 340 ft 193 kts 262°
2026-05-05 17:42 33.93527 -118.42603 1234 ft 210 kts 264°
2026-05-05 17:42 33.93380 -118.44323 2183 ft 209 kts 264°
2026-05-05 17:43 33.93220 -118.46081 2968 ft 214 kts 263°
2026-05-05 17:43 33.92624 -118.47808 3383 ft 242 kts 228°
2026-05-05 17:43 33.91375 -118.49185 4156 ft 249 kts 226°
2026-05-05 17:43 33.90133 -118.50731 4826 ft 265 kts 228°
2026-05-05 17:44 33.88884 -118.52375 5778 ft 266 kts 230°
2026-05-05 17:44 33.87640 -118.54074 6595 ft 276 kts 229°
2026-05-05 17:44 33.86091 -118.55432 7498 ft 279 kts 202°
2026-05-05 17:44 33.84169 -118.55828 8356 ft 287 kts 177°
2026-05-05 17:45 33.82197 -118.55398 9234 ft 291 kts 169°
2026-05-05 17:45 33.80225 -118.54888 10065 ft 295 kts 169°
2026-05-05 17:45 33.78142 -118.54342 10613 ft 311 kts 169°
2026-05-05 17:45 33.75955 -118.53760 10949 ft 332 kts 169°
2026-05-05 17:46 33.73636 -118.53138 11302 ft 350 kts 169°
2026-05-05 17:46 33.71290 -118.52226 11780 ft 363 kts 153°
2026-05-05 17:46 33.69293 -118.50356 12523 ft 369 kts 132°
2026-05-05 17:46 33.67862 -118.47780 12848 ft 373 kts 116°
2026-05-05 17:47 33.66685 -118.45002 12972 ft 374 kts 117°
2026-05-05 17:47 33.65494 -118.42235 13005 ft 374 kts 117°
2026-05-05 17:47 33.64299 -118.39459 12997 ft 374 kts 117°
2026-05-05 17:47 33.63121 -118.36724 12995 ft 374 kts 117°
2026-05-05 17:48 33.61929 -118.33958 12994 ft 374 kts 117°
2026-05-05 17:48 33.60736 -118.31190 12993 ft 374 kts 117°
2026-05-05 17:48 33.59543 -118.28427 12992 ft 374 kts 117°
2026-05-05 17:48 33.58345 -118.25653 13003 ft 374 kts 117°
2026-05-05 17:49 33.57149 -118.22885 13004 ft 374 kts 117°
2026-05-05 17:49 33.55953 -118.20122 13001 ft 374 kts 117°
2026-05-05 17:49 33.54756 -118.17355 12999 ft 373 kts 117°
2026-05-05 17:49 33.53565 -118.14596 13000 ft 373 kts 117°
2026-05-05 17:50 33.52374 -118.11827 12997 ft 373 kts 117°
2026-05-05 17:50 33.51184 -118.09061 12998 ft 373 kts 117°
2026-05-05 17:50 33.49989 -118.06288 13442 ft 374 kts 117°
2026-05-05 17:50 33.48789 -118.03504 14178 ft 378 kts 117°
2026-05-05 17:51 33.47571 -118.00694 14751 ft 385 kts 119°
2026-05-05 17:51 33.45910 -117.98126 15158 ft 395 kts 138°
2026-05-05 17:51 33.43857 -117.95919 15794 ft 398 kts 138°
2026-05-05 17:51 33.41794 -117.93692 16469 ft 401 kts 139°
2026-05-05 17:52 33.39702 -117.91458 17114 ft 405 kts 139°
2026-05-05 17:52 33.37589 -117.89210 17768 ft 408 kts 139°
2026-05-05 17:52 33.35457 -117.86948 18388 ft 411 kts 139°
2026-05-05 17:52 33.33281 -117.84641 18940 ft 414 kts 139°
2026-05-05 17:53 33.31113 -117.82344 19479 ft 418 kts 139°
2026-05-05 17:53 33.28958 -117.80063 20014 ft 420 kts 139°
2026-05-05 17:53 33.26762 -117.77740 20532 ft 423 kts 139°
2026-05-05 17:53 33.24544 -117.75396 21050 ft 427 kts 139°
2026-05-05 17:54 33.22312 -117.73039 21552 ft 430 kts 139°
2026-05-05 17:54 33.20069 -117.70671 22069 ft 433 kts 139°
2026-05-05 17:54 33.17824 -117.68252 22556 ft 436 kts 135°
2026-05-05 17:54 33.16042 -117.65322 23060 ft 440 kts 117°
2026-05-05 17:55 33.14889 -117.61928 23541 ft 443 kts 110°
2026-05-05 17:55 33.13827 -117.58463 23907 ft 447 kts 110°
2026-05-05 17:55 33.12772 -117.54956 24267 ft 451 kts 110°
2026-05-05 17:55 33.11721 -117.51421 24624 ft 454 kts 110°
2026-05-05 17:56 33.10665 -117.47849 24973 ft 458 kts 110°
2026-05-05 17:56 33.09602 -117.44251 25309 ft 462 kts 110°
2026-05-05 17:56 33.08529 -117.40622 25638 ft 466 kts 111°
2026-05-05 17:56 33.07446 -117.36964 25958 ft 470 kts 111°
2026-05-05 17:57 33.06353 -117.33275 26278 ft 473 kts 111°
2026-05-05 17:57 33.05254 -117.29571 26644 ft 476 kts 111°
2026-05-05 17:57 33.04150 -117.25853 27091 ft 476 kts 112°
2026-05-05 17:57 33.03041 -117.22126 27538 ft 478 kts 112°
2026-05-05 17:58 33.01928 -117.18386 27976 ft 479 kts 112°
2026-05-05 17:58 33.00808 -117.14632 28412 ft 480 kts 112°
2026-05-05 17:58 32.99689 -117.10882 28816 ft 482 kts 113°
2026-05-05 17:58 32.98564 -117.07120 29228 ft 483 kts 113°
2026-05-05 17:59 32.97436 -117.03350 29623 ft 484 kts 114°
2026-05-05 17:59 32.96305 -116.99579 30008 ft 485 kts 114°
2026-05-05 17:59 32.95165 -116.95778 30342 ft 487 kts 114°
2026-05-05 17:59 32.94024 -116.91978 30673 ft 488 kts 115°
2026-05-05 18:00 32.92879 -116.88173 30993 ft 489 kts 115°
2026-05-05 18:00 32.91729 -116.84354 31297 ft 490 kts 115°
2026-05-05 18:00 32.90575 -116.80529 31621 ft 491 kts 115°
2026-05-05 18:00 32.89418 -116.76694 31861 ft 493 kts 115°
2026-05-05 18:01 32.88633 -116.74099 32060 ft 493 kts 116°
2026-05-05 18:01 32.87473 -116.70266 32328 ft 494 kts 116°
2026-05-05 18:01 32.86320 -116.66461 32640 ft 495 kts 116°
2026-05-05 18:01 32.85154 -116.62616 32902 ft 496 kts 116°
2026-05-05 18:02 32.83981 -116.58754 33158 ft 497 kts 116°
2026-05-05 18:02 32.82806 -116.54890 33446 ft 498 kts 116°
2026-05-05 18:02 32.81629 -116.51020 33727 ft 498 kts 117°
2026-05-05 18:02 32.80308 -116.47244 34026 ft 491 kts 125°
2026-05-05 18:03 32.78753 -116.43625 34249 ft 491 kts 125°
2026-05-05 18:03 32.77196 -116.40011 34479 ft 491 kts 125°
2026-05-05 18:03 32.75631 -116.36403 34748 ft 491 kts 125°
2026-05-05 18:03 32.74063 -116.32796 34956 ft 492 kts 125°
2026-05-05 18:04 32.72492 -116.29190 34994 ft 492 kts 126°
2026-05-05 18:04 32.69356 -116.22000 34986 ft 489 kts 126°
2026-05-05 18:05 32.66193 -116.14762 34974 ft 499 kts 126°
2026-05-05 18:05 32.62971 -116.07403 34967 ft 507 kts 126°
2026-05-05 18:06 32.59693 -115.99927 34956 ft 514 kts 126°
2026-05-05 18:06 32.56379 -115.92389 34980 ft 516 kts 127°
2026-05-05 18:07 32.53057 -115.84848 34964 ft 516 kts 127°
2026-05-05 18:07 32.49727 -115.77306 34954 ft 516 kts 127°
2026-05-05 18:08 32.46395 -115.69775 34954 ft 517 kts 128°
2026-05-05 18:08 32.43052 -115.62235 34951 ft 517 kts 128°
2026-05-05 18:09 32.39699 -115.54688 34959 ft 518 kts 128°
2026-05-05 18:09 32.36338 -115.47138 34952 ft 519 kts 129°
2026-05-05 18:10 32.32972 -115.39591 34962 ft 519 kts 129°
2026-05-05 18:10 32.29603 -115.32056 34939 ft 516 kts 129°
2026-05-05 18:11 32.26228 -115.24522 34948 ft 520 kts 129°
2026-05-05 18:11 32.22846 -115.16988 34950 ft 520 kts 130°
2026-05-05 18:12 32.19471 -115.09483 34944 ft 520 kts 130°
2026-05-05 18:12 32.16056 -115.01906 34951 ft 520 kts 130°
2026-05-05 18:13 32.12681 -114.94436 34942 ft 519 kts 130°
2026-05-05 18:13 32.09266 -114.86891 34938 ft 517 kts 130°
2026-05-05 18:14 32.05878 -114.79419 34941 ft 516 kts 130°
2026-05-05 18:14 32.02496 -114.71978 34928 ft 514 kts 130°
2026-05-05 18:15 31.99140 -114.64607 34924 ft 513 kts 130°
2026-05-05 18:15 31.95763 -114.57207 34921 ft 513 kts 131°
2026-05-05 18:16 31.92381 -114.49811 34915 ft 513 kts 131°
2026-05-05 18:16 31.88997 -114.42422 34911 ft 512 kts 131°
2026-05-05 18:17 31.85613 -114.35050 34908 ft 512 kts 131°
2026-05-05 18:17 31.82226 -114.27685 34911 ft 512 kts 131°
2026-05-05 18:18 31.78831 -114.20319 34910 ft 512 kts 131°
2026-05-05 18:18 31.75428 -114.12951 34920 ft 512 kts 131°
2026-05-05 18:19 31.72026 -114.05597 34924 ft 512 kts 132°
2026-05-05 18:19 31.68619 -113.98249 34930 ft 512 kts 132°
2026-05-05 18:20 31.65208 -113.90906 34936 ft 512 kts 132°
2026-05-05 18:20 31.61795 -113.83571 34944 ft 512 kts 132°
2026-05-05 18:21 31.58378 -113.76243 34945 ft 512 kts 132°
2026-05-05 18:21 31.54956 -113.68920 34950 ft 512 kts 132°
2026-05-05 18:22 31.51531 -113.61604 34962 ft 512 kts 132°
2026-05-05 18:22 31.48105 -113.54296 34967 ft 512 kts 132°
2026-05-05 18:23 31.44671 -113.46986 34967 ft 512 kts 132°
2026-05-05 18:23 31.41233 -113.39680 34974 ft 512 kts 132°
2026-05-05 18:24 31.37772 -113.32412 34972 ft 506 kts 136°
2026-05-05 18:24 31.35626 -113.29345 34974 ft 473 kts 152°
2026-05-05 18:24 31.33214 -113.26738 34973 ft 473 kts 152°
2026-05-05 18:25 31.28335 -113.21604 34974 ft 471 kts 153°
2026-05-05 18:25 31.23413 -113.16560 34968 ft 471 kts 154°
2026-05-05 18:26 31.18470 -113.11528 34968 ft 471 kts 154°
2026-05-05 18:26 31.13522 -113.06500 34961 ft 472 kts 154°
2026-05-05 18:27 31.08569 -113.01473 34961 ft 472 kts 154°
2026-05-05 18:27 31.03612 -112.96450 34961 ft 472 kts 154°
2026-05-05 18:28 30.96168 -112.88920 34961 ft 472 kts 154°
2026-05-05 18:28 30.91204 -112.83909 34954 ft 472 kts 154°
2026-05-05 18:29 30.86244 -112.78907 34956 ft 472 kts 154°
2026-05-05 18:29 30.81287 -112.73917 34953 ft 471 kts 154°
2026-05-05 18:30 30.76334 -112.68937 34952 ft 470 kts 154°
2026-05-05 18:30 30.71384 -112.63967 34953 ft 469 kts 154°
2026-05-05 18:31 30.66437 -112.59009 34949 ft 469 kts 154°
2026-05-05 18:31 30.61489 -112.54054 34975 ft 470 kts 154°
2026-05-05 18:32 30.56553 -112.49119 34951 ft 468 kts 154°
2026-05-05 18:32 30.51614 -112.44188 34951 ft 468 kts 154°
2026-05-05 18:33 30.46683 -112.39273 34962 ft 467 kts 154°
2026-05-05 18:33 30.41750 -112.34361 34967 ft 467 kts 154°
2026-05-05 18:34 30.36819 -112.29458 34971 ft 467 kts 154°
2026-05-05 18:34 30.31893 -112.24568 34968 ft 466 kts 154°
2026-05-05 18:35 30.26967 -112.19683 34968 ft 466 kts 154°
2026-05-05 18:35 30.22038 -112.14803 34970 ft 466 kts 154°
2026-05-05 18:36 30.17112 -112.09933 34974 ft 466 kts 154°
2026-05-05 18:36 30.12184 -112.05067 34973 ft 466 kts 154°
2026-05-05 18:37 30.07259 -112.00210 34972 ft 465 kts 154°
2026-05-05 18:37 30.02376 -111.95401 34979 ft 465 kts 154°
2026-05-05 18:38 29.97422 -111.90529 34977 ft 465 kts 154°
2026-05-05 18:38 29.92532 -111.85725 34978 ft 465 kts 154°
2026-05-05 18:39 29.87603 -111.80889 34979 ft 465 kts 154°
2026-05-05 18:39 29.82675 -111.76064 34980 ft 465 kts 154°
2026-05-05 18:40 29.77748 -111.71243 34979 ft 465 kts 154°
2026-05-05 18:40 29.72817 -111.66425 34972 ft 464 kts 154°
2026-05-05 18:41 29.67900 -111.61626 34948 ft 463 kts 154°
2026-05-05 18:41 29.62992 -111.56844 34992 ft 463 kts 154°
2026-05-05 18:42 29.58094 -111.52075 34973 ft 461 kts 154°
2026-05-05 18:42 29.53201 -111.47319 34970 ft 460 kts 154°
2026-05-05 18:43 29.49139 -111.43376 34973 ft 459 kts 154°
2026-05-05 18:43 29.43445 -111.37854 34975 ft 459 kts 154°
2026-05-05 18:44 29.39392 -111.33934 34977 ft 458 kts 154°
2026-05-05 18:44 29.35261 -111.29943 34979 ft 458 kts 154°
2026-05-05 18:45 29.30693 -111.25536 34992 ft 458 kts 154°
2026-05-05 18:45 29.25823 -111.20843 35002 ft 457 kts 154°
2026-05-05 18:46 29.20950 -111.16152 35024 ft 458 kts 154°
2026-05-05 18:46 29.16072 -111.11463 35020 ft 457 kts 154°
2026-05-05 18:47 29.11197 -111.06782 35013 ft 458 kts 154°
2026-05-05 18:47 29.08826 -111.04293 35022 ft 470 kts 148°
2026-05-05 18:47 29.06548 -111.01610 35026 ft 471 kts 148°
2026-05-05 18:48 29.01997 -110.96206 35016 ft 472 kts 148°
2026-05-05 18:48 28.97451 -110.90802 35009 ft 472 kts 148°
2026-05-05 18:49 28.92892 -110.85391 35010 ft 473 kts 148°
2026-05-05 18:49 28.88330 -110.79981 34995 ft 473 kts 148°
2026-05-05 18:50 28.83794 -110.74611 34992 ft 474 kts 148°
2026-05-05 18:50 28.79213 -110.69195 34993 ft 474 kts 148°
2026-05-05 18:51 28.74616 -110.63781 34990 ft 475 kts 148°
2026-05-05 18:51 28.69994 -110.58401 34983 ft 475 kts 148°
2026-05-05 18:52 28.65370 -110.53020 34993 ft 476 kts 148°
2026-05-05 18:52 28.60729 -110.47626 34988 ft 476 kts 148°
2026-05-05 18:53 28.56089 -110.42241 34988 ft 477 kts 148°
2026-05-05 18:53 28.51439 -110.36850 34986 ft 477 kts 148°
2026-05-05 18:54 28.46787 -110.31466 34989 ft 478 kts 148°
2026-05-05 18:54 28.42128 -110.26080 34978 ft 478 kts 148°
2026-05-05 18:55 28.37465 -110.20697 34977 ft 478 kts 148°
2026-05-05 18:55 28.32798 -110.15317 34974 ft 478 kts 148°
2026-05-05 18:56 28.28133 -110.09945 34966 ft 478 kts 148°
2026-05-05 18:56 28.23464 -110.04577 34979 ft 478 kts 148°
2026-05-05 18:57 28.18793 -109.99211 34979 ft 478 kts 148°
2026-05-05 18:57 28.14148 -109.93794 34975 ft 480 kts 147°
2026-05-05 18:58 28.09511 -109.88355 34971 ft 479 kts 147°
2026-05-05 18:58 28.04875 -109.82929 34968 ft 480 kts 147°
2026-05-05 18:59 28.00233 -109.77501 34978 ft 480 kts 147°
2026-05-05 18:59 27.95586 -109.72076 34973 ft 480 kts 147°
2026-05-05 19:00 27.90939 -109.66657 34974 ft 480 kts 147°
2026-05-05 19:00 27.86287 -109.61242 34986 ft 480 kts 146°
2026-05-05 19:01 27.81639 -109.55836 34980 ft 479 kts 146°
2026-05-05 19:01 27.76991 -109.50438 34977 ft 479 kts 147°
2026-05-05 19:02 27.72345 -109.45048 34975 ft 478 kts 146°
2026-05-05 19:02 27.67700 -109.39669 34979 ft 478 kts 146°
2026-05-05 19:03 27.63062 -109.34303 34979 ft 478 kts 146°
2026-05-05 19:03 27.58414 -109.28949 34973 ft 477 kts 146°
2026-05-05 19:04 27.53748 -109.23632 34977 ft 477 kts 146°
2026-05-05 19:04 27.49090 -109.18325 34981 ft 476 kts 146°
2026-05-05 19:05 27.44439 -109.13035 34975 ft 475 kts 146°
2026-05-05 19:05 27.39795 -109.07758 34975 ft 474 kts 146°
2026-05-05 19:06 27.35152 -109.02489 34972 ft 473 kts 146°
2026-05-05 19:06 27.30524 -108.97243 34991 ft 473 kts 146°
2026-05-05 19:07 27.25894 -108.92002 34987 ft 471 kts 146°
2026-05-05 19:07 27.21274 -108.86778 34974 ft 471 kts 146°
2026-05-05 19:08 27.16657 -108.81565 34973 ft 470 kts 146°
2026-05-05 19:08 27.12044 -108.76361 34980 ft 470 kts 146°
2026-05-05 19:09 27.07431 -108.71164 34968 ft 470 kts 146°
2026-05-05 19:09 27.02801 -108.65958 35000 ft 473 kts 146°
2026-05-05 19:10 26.98174 -108.60759 34975 ft 470 kts 146°
2026-05-05 19:10 26.93556 -108.55575 34974 ft 470 kts 146°
2026-05-05 19:11 26.88944 -108.50405 34973 ft 469 kts 146°
2026-05-05 19:11 26.84319 -108.45229 34965 ft 469 kts 146°
2026-05-05 19:12 26.79733 -108.40101 34968 ft 469 kts 146°
2026-05-05 19:12 26.75081 -108.34906 34974 ft 469 kts 146°
2026-05-05 19:13 26.70462 -108.29755 34972 ft 468 kts 146°
2026-05-05 19:13 26.65851 -108.24617 34954 ft 469 kts 146°
2026-05-05 19:14 26.61228 -108.19472 34946 ft 468 kts 145°
2026-05-05 19:14 26.56961 -108.13886 34994 ft 481 kts 135°
2026-05-05 19:15 26.53062 -108.07819 34986 ft 480 kts 135°
2026-05-05 19:15 26.49172 -108.01758 34988 ft 480 kts 135°
2026-05-05 19:16 26.45283 -107.95704 34957 ft 481 kts 135°
2026-05-05 19:16 26.41388 -107.89646 34992 ft 480 kts 135°
2026-05-05 19:17 26.37492 -107.83594 34960 ft 479 kts 135°
2026-05-05 19:17 26.33597 -107.77557 34986 ft 479 kts 135°
2026-05-05 19:18 26.29712 -107.71538 35030 ft 480 kts 135°
2026-05-05 19:18 26.25812 -107.65504 34983 ft 478 kts 135°
2026-05-05 19:19 26.21920 -107.59495 35007 ft 480 kts 135°
2026-05-05 19:19 26.18024 -107.53484 34986 ft 479 kts 135°
2026-05-05 19:20 26.14121 -107.47469 34994 ft 479 kts 135°
2026-05-05 19:20 26.10217 -107.41464 34987 ft 478 kts 135°
2026-05-05 19:21 26.06310 -107.35467 35041 ft 480 kts 135°
2026-05-05 19:21 26.02412 -107.29478 34978 ft 479 kts 135°
2026-05-05 19:22 25.98481 -107.23452 35011 ft 481 kts 135°
2026-05-05 19:22 25.94562 -107.17453 35008 ft 479 kts 134°
2026-05-05 19:23 25.90643 -107.11461 35012 ft 479 kts 134°
2026-05-05 19:23 25.86726 -107.05471 35017 ft 479 kts 134°
2026-05-05 19:24 25.83472 -107.00485 35025 ft 480 kts 134°
2026-05-05 19:24 25.79556 -106.94491 35004 ft 479 kts 134°
2026-05-05 19:25 25.75637 -106.88501 35037 ft 480 kts 134°
2026-05-05 19:25 25.71719 -106.82519 35024 ft 479 kts 134°
2026-05-05 19:26 25.67795 -106.76537 35026 ft 480 kts 134°
2026-05-05 19:26 25.63863 -106.70551 35020 ft 481 kts 133°
2026-05-05 19:27 25.59927 -106.64565 35026 ft 480 kts 133°
2026-05-05 19:27 25.55993 -106.58589 35002 ft 480 kts 133°
2026-05-05 19:28 25.52052 -106.52610 35002 ft 480 kts 133°
2026-05-05 19:28 25.48110 -106.46640 35013 ft 480 kts 133°
2026-05-05 19:29 25.44165 -106.40669 34997 ft 480 kts 133°
2026-05-05 19:29 25.40173 -106.34743 35002 ft 480 kts 134°
2026-05-05 19:30 25.36165 -106.28827 35000 ft 481 kts 134°
2026-05-05 19:30 25.32152 -106.22910 34993 ft 481 kts 134°
2026-05-05 19:31 25.28138 -106.17000 35000 ft 481 kts 134°
2026-05-05 19:31 25.24119 -106.11087 34980 ft 481 kts 134°
2026-05-05 19:32 25.20099 -106.05182 34988 ft 481 kts 134°
2026-05-05 19:32 25.16076 -105.99280 34989 ft 481 kts 134°
2026-05-05 19:33 25.12049 -105.93378 34977 ft 480 kts 134°
2026-05-05 19:33 25.08033 -105.87499 34960 ft 480 kts 134°
2026-05-05 19:34 25.04043 -105.81665 34962 ft 479 kts 134°
2026-05-05 19:35 24.98005 -105.72849 34931 ft 479 kts 134°
2026-05-05 19:35 24.93990 -105.66995 34940 ft 478 kts 134°
2026-05-05 19:36 24.89974 -105.61149 34933 ft 478 kts 134°
2026-05-05 19:36 24.85958 -105.55308 34921 ft 478 kts 134°
2026-05-05 19:37 24.81932 -105.49462 34928 ft 480 kts 134°
2026-05-05 19:37 24.77901 -105.43612 34919 ft 479 kts 134°
2026-05-05 19:38 24.73873 -105.37775 34912 ft 479 kts 134°
2026-05-05 19:38 24.69841 -105.31941 34907 ft 478 kts 134°
2026-05-05 19:39 24.65813 -105.26118 34897 ft 479 kts 134°
2026-05-05 19:39 24.61780 -105.20301 34897 ft 478 kts 134°
2026-05-05 19:40 24.57739 -105.14482 34887 ft 479 kts 134°
2026-05-05 19:40 24.53693 -105.08662 34881 ft 479 kts 134°
2026-05-05 19:41 24.49651 -105.02855 34883 ft 479 kts 134°
2026-05-05 19:41 24.45610 -104.97054 34861 ft 478 kts 134°
2026-05-05 19:42 24.41566 -104.91256 34856 ft 478 kts 134°
2026-05-05 19:42 24.37517 -104.85460 34849 ft 478 kts 134°
2026-05-05 19:43 24.33472 -104.79676 34881 ft 478 kts 134°
2026-05-05 19:43 24.29418 -104.73885 34962 ft 478 kts 134°
2026-05-05 19:44 24.25366 -104.68105 35053 ft 478 kts 134°
2026-05-05 19:44 24.21316 -104.62333 35142 ft 478 kts 134°
2026-05-05 19:45 24.17260 -104.56559 35190 ft 478 kts 134°
2026-05-05 19:45 24.13235 -104.50759 35190 ft 479 kts 132°
2026-05-05 19:46 24.09286 -104.44887 35191 ft 479 kts 132°
2026-05-05 19:46 24.05356 -104.39068 35112 ft 479 kts 132°
2026-05-05 19:47 24.01397 -104.33215 35013 ft 479 kts 132°
2026-05-05 19:47 23.97435 -104.27365 34922 ft 478 kts 132°
2026-05-05 19:48 23.93474 -104.21523 34833 ft 478 kts 132°
2026-05-05 19:48 23.89488 -104.15651 34812 ft 478 kts 132°
2026-05-05 19:49 23.85527 -104.09823 34821 ft 478 kts 132°
2026-05-05 19:49 23.81594 -104.04042 34825 ft 477 kts 132°
2026-05-05 19:50 23.77632 -103.98226 34830 ft 477 kts 132°
2026-05-05 19:50 23.73670 -103.92416 34837 ft 477 kts 132°
2026-05-05 19:51 23.69711 -103.86608 34848 ft 477 kts 131°
2026-05-05 19:51 23.65751 -103.80797 34844 ft 477 kts 131°
2026-05-05 19:52 23.61789 -103.75005 34852 ft 477 kts 132°
2026-05-05 19:52 23.57821 -103.69214 34854 ft 477 kts 131°
2026-05-05 19:53 23.53856 -103.63434 34855 ft 476 kts 131°
2026-05-05 19:53 23.49889 -103.57651 34848 ft 476 kts 131°
2026-05-05 19:54 23.45915 -103.51865 34857 ft 476 kts 131°
2026-05-05 19:54 23.41949 -103.46094 34851 ft 476 kts 131°
2026-05-05 19:55 23.37978 -103.40324 34862 ft 476 kts 131°
2026-05-05 19:55 23.34003 -103.34554 34847 ft 476 kts 131°
2026-05-05 19:56 23.30035 -103.28801 34856 ft 476 kts 131°
2026-05-05 19:56 23.26005 -103.22965 34850 ft 476 kts 131°
2026-05-05 19:57 23.22021 -103.17202 34841 ft 476 kts 131°
2026-05-05 19:57 23.18048 -103.11461 34842 ft 476 kts 131°
2026-05-05 19:58 23.14066 -103.05713 34841 ft 475 kts 131°
2026-05-05 19:58 23.10087 -102.99979 34850 ft 475 kts 131°
2026-05-05 19:59 23.06106 -102.94249 34952 ft 475 kts 131°
2026-05-05 19:59 23.02126 -102.88526 35067 ft 475 kts 131°
2026-05-05 20:00 22.98142 -102.82803 35166 ft 475 kts 131°
2026-05-05 20:00 22.94157 -102.77092 35273 ft 475 kts 131°
2026-05-05 20:01 22.90157 -102.71363 35276 ft 474 kts 133°
2026-05-05 20:01 22.87846 -102.68876 35261 ft 464 kts 148°
2026-05-05 20:01 22.85205 -102.66891 35275 ft 464 kts 149°
2026-05-05 20:02 22.79866 -102.62943 35238 ft 464 kts 150°
2026-05-05 20:02 22.75401 -102.59711 35158 ft 464 kts 150°
2026-05-05 20:03 22.69992 -102.55817 35047 ft 464 kts 150°
2026-05-05 20:03 22.64612 -102.51948 34952 ft 464 kts 150°
2026-05-05 20:04 22.59227 -102.48080 34846 ft 464 kts 150°
2026-05-05 20:04 22.53843 -102.44217 34847 ft 464 kts 150°
2026-05-05 20:05 22.48460 -102.40359 34837 ft 464 kts 150°
2026-05-05 20:05 22.43078 -102.36504 34834 ft 464 kts 150°
2026-05-05 20:06 22.37689 -102.32647 34840 ft 464 kts 150°
2026-05-05 20:06 22.32301 -102.28796 34832 ft 465 kts 150°
2026-05-05 20:07 22.26913 -102.24948 34820 ft 464 kts 150°
2026-05-05 20:07 22.21529 -102.21106 34816 ft 464 kts 150°
2026-05-05 20:08 22.16141 -102.17265 34811 ft 464 kts 150°
2026-05-05 20:08 22.10759 -102.13433 34805 ft 463 kts 150°
2026-05-05 20:09 22.05409 -102.09626 34801 ft 463 kts 149°
2026-05-05 20:09 22.00025 -102.05798 34795 ft 463 kts 149°
2026-05-05 20:10 21.94645 -102.01978 34796 ft 463 kts 149°
2026-05-05 20:10 21.89259 -101.98156 34797 ft 463 kts 149°
2026-05-05 20:11 21.83874 -101.94339 34801 ft 463 kts 149°
2026-05-05 20:11 21.78491 -101.90526 34803 ft 463 kts 149°
2026-05-05 20:12 21.73105 -101.86715 34801 ft 463 kts 149°
2026-05-05 20:12 21.67720 -101.82908 34804 ft 463 kts 149°
2026-05-05 20:13 21.62329 -101.79099 34808 ft 463 kts 149°
2026-05-05 20:13 21.57053 -101.75123 34794 ft 466 kts 138°
2026-05-05 20:13 21.54988 -101.72420 34815 ft 470 kts 127°
2026-05-05 20:14 21.53136 -101.69515 34805 ft 472 kts 127°
2026-05-05 20:14 21.49466 -101.63659 34818 ft 472 kts 126°
2026-05-05 20:15 21.45843 -101.57789 34816 ft 472 kts 126°
2026-05-05 20:15 21.42217 -101.51907 34812 ft 472 kts 126°
2026-05-05 20:16 21.38593 -101.46034 34819 ft 472 kts 126°
2026-05-05 20:16 21.34975 -101.40179 34815 ft 471 kts 126°
2026-05-05 20:17 21.31343 -101.34304 34830 ft 471 kts 126°
2026-05-05 20:17 21.27721 -101.28454 34841 ft 471 kts 126°
2026-05-05 20:18 21.24091 -101.22597 34828 ft 471 kts 126°
2026-05-05 20:18 21.20462 -101.16746 34800 ft 471 kts 126°
2026-05-05 20:19 21.16835 -101.10906 34741 ft 471 kts 126°
2026-05-05 20:19 21.15023 -101.07990 34505 ft 470 kts 126°
2026-05-05 20:19 21.13215 -101.05083 34255 ft 469 kts 126°
2026-05-05 20:19 21.11405 -101.02174 34006 ft 469 kts 126°
2026-05-05 20:20 21.09595 -100.99264 33747 ft 469 kts 126°
2026-05-05 20:20 21.07782 -100.96357 33458 ft 469 kts 127°
2026-05-05 20:20 21.05814 -100.93586 33181 ft 468 kts 130°
2026-05-05 20:20 21.03811 -100.90827 32903 ft 469 kts 130°
2026-05-05 20:21 21.01822 -100.88057 32631 ft 470 kts 130°
2026-05-05 20:21 20.99834 -100.85277 32353 ft 470 kts 130°
2026-05-05 20:21 20.97845 -100.82492 32078 ft 471 kts 130°
2026-05-05 20:21 20.95857 -100.79710 31813 ft 472 kts 130°
2026-05-05 20:22 20.93861 -100.76918 31552 ft 472 kts 130°
2026-05-05 20:22 20.91869 -100.74132 31288 ft 473 kts 129°
2026-05-05 20:22 20.89871 -100.71339 31022 ft 473 kts 129°
2026-05-05 20:22 20.87868 -100.68541 30767 ft 474 kts 129°
2026-05-05 20:23 20.85864 -100.65743 30513 ft 474 kts 129°
2026-05-05 20:23 20.83854 -100.62937 30263 ft 475 kts 129°
2026-05-05 20:23 20.81845 -100.60135 30011 ft 475 kts 129°
2026-05-05 20:23 20.79834 -100.57331 29743 ft 475 kts 129°
2026-05-05 20:24 20.77821 -100.54527 29448 ft 476 kts 129°
2026-05-05 20:24 20.75809 -100.51724 29198 ft 476 kts 129°
2026-05-05 20:24 20.73789 -100.48911 28970 ft 476 kts 129°
2026-05-05 20:24 20.71805 -100.46151 28751 ft 470 kts 129°
2026-05-05 20:25 20.69793 -100.43352 28526 ft 468 kts 129°
2026-05-05 20:25 20.67838 -100.40634 28310 ft 468 kts 129°
2026-05-05 20:25 20.65852 -100.37875 28092 ft 468 kts 129°
2026-05-05 20:25 20.63866 -100.35117 27868 ft 468 kts 129°
2026-05-05 20:26 20.61877 -100.32356 27649 ft 469 kts 129°
2026-05-05 20:26 20.59888 -100.29596 27414 ft 469 kts 129°
2026-05-05 20:26 20.57899 -100.26838 27187 ft 470 kts 129°
2026-05-05 20:26 20.55905 -100.24074 26926 ft 470 kts 129°
2026-05-05 20:27 20.53910 -100.21309 26667 ft 470 kts 129°
2026-05-05 20:27 20.51913 -100.18545 26394 ft 468 kts 129°
2026-05-05 20:27 20.49931 -100.15802 26105 ft 466 kts 129°
2026-05-05 20:27 20.47955 -100.13067 25811 ft 465 kts 129°
2026-05-05 20:28 20.45983 -100.10340 25513 ft 463 kts 128°
2026-05-05 20:28 20.44020 -100.07627 25218 ft 461 kts 128°
2026-05-05 20:28 20.42065 -100.04927 24925 ft 460 kts 128°
2026-05-05 20:28 20.40113 -100.02232 24633 ft 458 kts 128°
2026-05-05 20:29 20.38170 -99.99550 24348 ft 456 kts 128°
2026-05-05 20:29 20.36232 -99.96876 24043 ft 454 kts 128°
2026-05-05 20:29 20.34303 -99.94215 23759 ft 453 kts 128°
2026-05-05 20:29 20.32382 -99.91567 23521 ft 451 kts 128°
2026-05-05 20:30 20.30494 -99.88966 23289 ft 437 kts 128°
2026-05-05 20:30 20.28661 -99.86443 23029 ft 425 kts 128°
2026-05-05 20:30 20.26859 -99.83961 22738 ft 422 kts 128°
2026-05-05 20:30 20.25067 -99.81496 22471 ft 419 kts 128°
2026-05-05 20:31 20.23297 -99.79077 22156 ft 409 kts 130°
2026-05-05 20:31 20.21219 -99.77068 21800 ft 402 kts 147°
2026-05-05 20:31 20.18712 -99.75805 21443 ft 400 kts 162°
2026-05-05 20:31 20.16018 -99.75096 21103 ft 397 kts 167°
2026-05-05 20:32 20.13344 -99.74479 20767 ft 386 kts 167°
2026-05-05 20:32 20.10772 -99.73924 20475 ft 369 kts 168°
2026-05-05 20:32 20.08298 -99.73409 20161 ft 355 kts 168°
2026-05-05 20:32 20.05921 -99.72925 19856 ft 342 kts 168°
2026-05-05 20:33 20.03631 -99.72376 19545 ft 336 kts 159°
2026-05-05 20:33 20.01612 -99.71225 19268 ft 333 kts 142°
2026-05-05 20:33 19.99940 -99.69542 19001 ft 330 kts 135°
2026-05-05 20:33 19.98302 -99.67836 18734 ft 330 kts 136°
2026-05-05 20:34 19.96650 -99.66142 18484 ft 329 kts 136°
2026-05-05 20:34 19.95000 -99.64465 18220 ft 328 kts 136°
2026-05-05 20:34 19.93350 -99.62794 17942 ft 327 kts 136°
2026-05-05 20:34 19.91704 -99.61131 17650 ft 325 kts 136°
2026-05-05 20:35 19.90073 -99.59485 17378 ft 322 kts 136°
2026-05-05 20:35 19.88456 -99.57854 17111 ft 318 kts 136°
2026-05-05 20:35 19.86859 -99.56243 16844 ft 316 kts 136°
2026-05-05 20:35 19.85271 -99.54642 16583 ft 313 kts 136°
2026-05-05 20:36 19.83698 -99.53057 16321 ft 311 kts 136°
2026-05-05 20:36 19.82136 -99.51483 16055 ft 309 kts 136°
2026-05-05 20:36 19.80579 -99.49916 15812 ft 308 kts 136°
2026-05-05 20:36 19.79031 -99.48358 15562 ft 306 kts 136°
2026-05-05 20:37 19.77486 -99.46804 15313 ft 305 kts 136°
2026-05-05 20:37 19.76470 -99.45782 15154 ft 303 kts 136°
2026-05-05 20:37 19.74439 -99.43739 14890 ft 298 kts 136°
2026-05-05 20:37 19.72944 -99.42235 14683 ft 295 kts 136°
2026-05-05 20:38 19.71456 -99.40739 14490 ft 293 kts 136°
2026-05-05 20:38 19.69982 -99.39259 14291 ft 291 kts 136°
2026-05-05 20:38 19.68517 -99.37789 14109 ft 289 kts 136°
2026-05-05 20:38 19.67063 -99.36328 13926 ft 287 kts 136°
2026-05-05 20:39 19.65616 -99.34876 13740 ft 285 kts 136°
2026-05-05 20:39 19.64183 -99.33437 13545 ft 284 kts 136°
2026-05-05 20:39 19.62747 -99.31997 13351 ft 283 kts 136°
2026-05-05 20:39 19.61323 -99.30568 13181 ft 282 kts 136°
2026-05-05 20:40 19.59896 -99.29149 12992 ft 281 kts 139°
2026-05-05 20:40 19.58336 -99.27897 12812 ft 281 kts 143°
2026-05-05 20:40 19.56760 -99.26680 12646 ft 280 kts 143°
2026-05-05 20:40 19.55189 -99.25453 12474 ft 281 kts 143°
2026-05-05 20:41 19.53619 -99.24229 12362 ft 279 kts 146°
2026-05-05 20:41 19.51831 -99.23510 12314 ft 277 kts 174°
2026-05-05 20:41 19.49935 -99.23481 12246 ft 269 kts 178°
2026-05-05 20:41 19.48088 -99.23451 12154 ft 262 kts 178°
2026-05-05 20:42 19.46289 -99.23419 12043 ft 255 kts 178°
2026-05-05 20:42 19.44552 -99.23388 11977 ft 246 kts 178°
2026-05-05 20:42 19.42852 -99.23358 11584 ft 245 kts 178°
2026-05-05 20:42 19.41142 -99.23325 11132 ft 247 kts 177°
2026-05-05 20:43 19.39452 -99.23029 10685 ft 247 kts 158°
2026-05-05 20:43 19.38074 -99.22033 10261 ft 239 kts 130°
2026-05-05 20:43 19.37307 -99.20504 9805 ft 236 kts 106°
2026-05-05 20:43 19.37202 -99.18786 9415 ft 236 kts 81°
2026-05-05 20:44 19.37784 -99.17204 9304 ft 225 kts 58°
2026-05-05 20:44 19.38570 -99.15875 9279 ft 202 kts 59°
2026-05-05 20:44 19.39046 -99.15044 9254 ft 187 kts 59°
2026-05-05 20:44 19.39700 -99.13905 9260 ft 179 kts 59°
2026-05-05 20:45 19.41018 -99.11679 9047 ft 178 kts 61°
2026-05-05 20:45 19.41601 -99.10521 8395 ft 179 kts 62°
2026-05-05 20:45 19.42224 -99.09385 7643 ft 177 kts 58°
2026-05-05 20:46 19.42862 -99.08278 7340 ft 175 kts 57°
2026-05-05 20:46 19.43451 -99.07249 7305 ft 136 kts 59°
2026-05-05 20:46 19.43818 -99.06586 7305 ft 78 kts 58°
2026-05-05 20:46 19.43978 -99.06266 7304 ft 15 kts 89°
2026-05-05 20:47 19.43968 -99.06165 7305 ft 14 kts 90°
2026-05-05 20:47 19.43969 -99.06114 7305 ft 2 kts 89°
2026-05-05 20:47 19.43969 -99.06093 7305 ft 4 kts 89°
2026-05-05 20:47 19.43952 -99.06061 7305 ft 6 kts 158°
2026-05-05 20:48 19.43913 -99.06071 7305 ft 6 kts 222°
2026-05-05 20:48 19.43894 -99.06115 7305 ft 9 kts 250°
2026-05-05 20:48 19.43850 -99.06197 7305 ft 16 kts 236°
2026-05-05 20:48 19.43785 -99.06308 7305 ft 19 kts 240°
2026-05-05 20:49 19.43721 -99.06428 7305 ft 19 kts 239°
2026-05-05 20:49 19.43652 -99.06549 7305 ft 19 kts 239°
2026-05-05 20:49 19.43587 -99.06663 7305 ft 16 kts 235°
2026-05-05 20:49 19.43495 -99.06733 7305 ft 17 kts 207°
2026-05-05 20:50 19.43390 -99.06791 7305 ft 17 kts 208°
2026-05-05 20:50 19.43300 -99.06874 7305 ft 18 kts 239°
2026-05-05 20:50 19.43241 -99.06980 7305 ft 16 kts 239°
2026-05-05 20:50 19.43201 -99.07074 7305 ft 14 kts 256°
2026-05-05 20:51 19.43168 -99.07173 7305 ft 14 kts 239°
2026-05-05 20:51 19.43114 -99.07266 7305 ft 15 kts 239°
2026-05-05 20:51 19.43060 -99.07363 7305 ft 16 kts 239°
2026-05-05 20:51 19.43005 -99.07460 7305 ft 14 kts 239°
2026-05-05 20:52 19.42950 -99.07560 7305 ft 17 kts 239°
2026-05-05 20:52 19.42888 -99.07678 7305 ft 18 kts 242°
2026-05-05 20:52 19.42830 -99.07784 7305 ft 17 kts 239°
2026-05-05 20:52 19.42774 -99.07885 7305 ft 11 kts 239°
2026-05-05 20:53 19.42734 -99.07959 7305 ft 12 kts 240°
2026-05-05 20:53 19.42690 -99.08036 7305 ft 13 kts 239°
2026-05-05 20:53 19.42643 -99.08120 7305 ft 13 kts 239°
2026-05-05 20:53 19.42616 -99.08146 7305 ft 3 kts 191°
2026-05-05 20:54 19.42573 -99.08130 7305 ft 9 kts 148°
2026-05-05 20:54 19.42516 -99.08096 7305 ft 10 kts 149°
2026-05-05 20:54 19.42456 -99.08057 7305 ft 11 kts 150°
2026-05-05 20:54 19.42394 -99.08019 7305 ft 7 kts 148°
2026-05-05 20:55 19.42366 -99.07993 7305 ft 4 kts 131°
2026-05-05 20:55 19.42352 -99.07979 7305 ft 1 kts 149°
2026-05-05 20:55 19.42346 -99.07977 7305 ft 1 kts 160°
2026-05-05 20:55 19.42345 -99.07977 7305 ft 0 kts 165°
2026-05-05 20:56 19.42326 -99.07979 7305 ft 5 kts 197°
2026-05-05 20:56 19.42306 -99.07991 7305 ft 2 kts 216°
2026-05-05 20:56 19.42297 -99.07997 7305 ft 1 kts 212°
2026-05-05 20:56 19.42293 -99.08000 7305 ft 1 kts 211°
2026-05-05 20:57 19.42290 -99.08002 7305 ft 0 kts 211°